[Date Prev][Date Next][Thread Prev][Thread Next] - [Date Index][Thread Index][Author Index]
2 Line ISS Keps 10-12
- Subject: [sarex] 2 Line ISS Keps 10-12
- From: "Dave Larsen PhD" <doc@xxxxxxxxxxx>
- Date: Fri, 12 Oct 2001 03:36:05 -0700
ISS
1 25544U 98067A 01285.34902914 .00108234 00000-0 14831-2 0 5902
2 25544 51.6393 219.1640 0008290 193.5806 312.7675 15.56497025165369
----
Via the sarex mailing list at AMSAT.ORG courtesy of AMSAT-NA.
To unsubscribe, send "unsubscribe sarex" to Majordomo@amsat.org
AMSAT Home